| time (UTC) | temp F | wind direction | speed MPH | gust MPH | rain 1hr in | rain 24hr in | rain mn in | humidity % | barometer mb |
| 20260503212745 | 80 | 217 | 2.0 | 3.0 | 0.00 | 0.00 | 0.00 | 34 | 1008.6 |
| 20260503212243 | 80 | 258 | 3.0 | 3.0 | 0.00 | 0.00 | 0.00 | 34 | 1008.6 |
| 20260503211741 | 80 | 253 | 1.0 | 2.0 | 0.00 | 0.00 | 0.00 | 35 | 1008.5 |
| 20260503211237 | 80 | 250 | 2.0 | 2.0 | 0.00 | 0.00 | 0.00 | 35 | 1008.6 |
| 20260503210732 | 81 | 285 | 1.0 | 2.0 | 0.00 | 0.00 | 0.00 | 36 | 1008.9 |
| 20260503210230 | 80 | 225 | 0.0 | 2.0 | 0.00 | 0.00 | 0.00 | 35 | 1008.9 |
| 20260503205725 | 81 | 263 | 2.0 | 3.0 | 0.00 | 0.00 | 0.00 | 35 | 1008.8 |
| 20260503205221 | 80 | 298 | 1.0 | 2.0 | 0.00 | 0.00 | 0.00 | 35 | 1008.9 |
| 20260503204718 | 81 | 218 | 2.0 | 2.0 | 0.00 | 0.00 | 0.00 | 35 | 1008.9 |
| 20260503204216 | 81 | 229 | 0.0 | 0.0 | 0.00 | 0.00 | 0.00 | 35 | 1009.3 |
| 20260503203713 | 81 | 215 | 0.0 | 3.0 | 0.00 | 0.00 | 0.00 | 34 | 1009.4 |
| 20260503203211 | 81 | 47 | 0.0 | 0.0 | 0.00 | 0.00 | 0.00 | 36 | 1009.4 |
| 20260503202708 | 80 | 230 | 2.0 | 3.0 | 0.00 | 0.00 | 0.00 | 35 | 1009.3 |
| 20260503202205 | 80 | 256 | 3.0 | 6.0 | 0.00 | 0.00 | 0.00 | 35 | 1009.5 |
| 20260503201703 | 80 | 264 | 2.0 | 2.0 | 0.00 | 0.00 | 0.00 | 37 | 1009.2 |
| 20260503201200 | 80 | 224 | 3.0 | 3.0 | 0.00 | 0.00 | 0.00 | 36 | 1009.5 |
| 20260503200651 | 80 | 220 | 2.0 | 3.0 | 0.00 | 0.00 | 0.00 | 37 | 1009.4 |
| 20260503200147 | 80 | 205 | 0.0 | 2.0 | 0.00 | 0.00 | 0.00 | 37 | 1009.4 |
| 20260503195644 | 80 | 149 | 0.0 | 2.0 | 0.00 | 0.00 | 0.00 | 37 | 1009.6 |
| 20260503195141 | 80 | 236 | 2.0 | 2.0 | 0.00 | 0.00 | 0.00 | 41 | 1009.8 |
| 20260503194638 | 79 | 231 | 3.0 | 3.0 | 0.00 | 0.00 | 0.00 | 39 | 1010.0 |
| 20260503194134 | 78 | 151 | 0.0 | 5.0 | 0.00 | 0.00 | 0.00 | 39 | 1009.9 |
| 20260503193632 | 79 | 238 | 3.0 | 5.0 | 0.00 | 0.00 | 0.00 | 39 | 1009.8 |
| 20260503193126 | 78 | 139 | 0.0 | 2.0 | 0.00 | 0.00 | 0.00 | 40 | 1010.0 |
| 20260503192617 | 78 | 212 | 2.0 | 3.0 | 0.00 | 0.00 | 0.00 | 40 | 1010.1 |
| 20260503192112 | 78 | 272 | 2.0 | 2.0 | 0.00 | 0.00 | 0.00 | 39 | 1010.0 |
| 20260503191609 | 78 | 153 | 0.0 | 1.0 | 0.00 | 0.00 | 0.00 | 41 | 1010.0 |
| 20260503191106 | 78 | 250 | 1.0 | 3.0 | 0.00 | 0.00 | 0.00 | 40 | 1010.2 |
| 20260503190604 | 77 | 229 | 1.0 | 3.0 | 0.00 | 0.00 | 0.00 | 41 | 1010.2 |
| 20260503185557 | 76 | 221 | 2.0 | 5.0 | 0.00 | 0.00 | 0.00 | 40 | 1010.4 |
| 20260503185057 | 77 | 248 | 3.0 | 5.0 | 0.00 | 0.00 | 0.00 | 40 | 1010.5 |
| 20260503184552 | 77 | 235 | 3.0 | 5.0 | 0.00 | 0.00 | 0.00 | 41 | 1010.6 |
| 20260503184049 | 77 | 298 | 0.0 | 1.0 | 0.00 | 0.00 | 0.00 | 41 | 1010.4 |
| 20260503183546 | 76 | 186 | 1.0 | 2.0 | 0.00 | 0.00 | 0.00 | 42 | 1010.6 |
| 20260503183043 | 77 | 229 | 3.0 | 5.0 | 0.00 | 0.00 | 0.00 | 41 | 1010.9 |
| 20260503182541 | 76 | 257 | 2.0 | 3.0 | 0.00 | 0.00 | 0.00 | 41 | 1010.7 |
| 20260503182039 | 75 | 244 | 2.0 | 6.0 | 0.00 | 0.00 | 0.00 | 43 | 1010.8 |
| 20260503181536 | 75 | 196 | 2.0 | 5.0 | 0.00 | 0.00 | 0.00 | 44 | 1010.8 |
| 20260503181032 | 75 | 236 | 5.0 | 6.0 | 0.00 | 0.00 | 0.00 | 42 | 1011.0 |
| 20260503180530 | 75 | 234 | 2.0 | 2.0 | 0.00 | 0.00 | 0.00 | 42 | 1011.3 |
| 20260503180026 | 75 | 228 | 1.0 | 3.0 | 0.00 | 0.00 | 0.00 | 42 | 1011.3 |
| 20260503175524 | 74 | 173 | 3.0 | 5.0 | 0.00 | 0.00 | 0.00 | 42 | 1011.3 |
| 20260503175020 | 74 | 214 | 3.0 | 3.0 | 0.00 | 0.00 | 0.00 | 42 | 1011.4 |
| 20260503174518 | 74 | 215 | 3.0 | 5.0 | 0.00 | 0.00 | 0.00 | 44 | 1011.4 |
| 20260503174014 | 74 | 249 | 3.0 | 10.0 | 0.00 | 0.00 | 0.00 | 43 | 1011.3 |
| 20260503173509 | 73 | 311 | 2.0 | 6.0 | 0.00 | 0.00 | 0.00 | 44 | 1011.4 |
| 20260503173006 | 73 | 278 | 3.0 | 6.0 | 0.00 | 0.00 | 0.00 | 43 | 1011.5 |
| 20260503172504 | 73 | 207 | 2.0 | 8.0 | 0.00 | 0.00 | 0.00 | 43 | 1011.9 |
| 20260503172000 | 72 | 288 | 2.0 | 3.0 | 0.00 | 0.00 | 0.00 | 43 | 1011.5 |
| 20260503171456 | 73 | 260 | 3.0 | 5.0 | 0.00 | 0.00 | 0.00 | 44 | 1011.5 |
| 20260503170954 | 73 | 253 | 2.0 | 6.0 | 0.00 | 0.00 | 0.00 | 43 | 1011.6 |
| 20260503170450 | 73 | 236 | 2.0 | 3.0 | 0.00 | 0.00 | 0.00 | 43 | 1011.5 |
| 20260503150843 | 64 | 219 | 5.0 | 6.0 | 0.00 | 0.00 | 0.00 | 50 | 1012.7 |
| 20260503150339 | 64 | 203 | 3.0 | 5.0 | 0.00 | 0.00 | 0.00 | 50 | 1012.8 |
| 20260503140303 | 59 | 137 | 1.0 | 6.0 | 0.00 | 0.00 | 0.00 | 52 | 1013.0 |
| 20260503131232 | 56 | 231 | 6.0 | 7.0 | 0.00 | 0.00 | 0.00 | 51 | 1013.9 |
| 20260503130730 | 56 | 234 | 4.0 | 6.0 | 0.00 | 0.00 | 0.00 | 50 | 1013.7 |
| 20260503130227 | 56 | 131 | 2.0 | 3.0 | 0.00 | 0.00 | 0.00 | 51 | 1013.8 |
| 20260503120148 | 53 | 183 | 1.0 | 3.0 | 0.00 | 0.00 | 0.00 | 49 | 1013.4 |
| 20260503110610 | 52 | 188 | 0.0 | 0.0 | 0.00 | 0.00 | 0.00 | 51 | 1013.8 |
| 20260503110107 | 52 | 108 | 0.0 | 1.0 | 0.00 | 0.00 | 0.00 | 51 | 1013.6 |
| 20260503090450 | 52 | 106 | 0.0 | 0.0 | 0.00 | 0.00 | 0.00 | 51 | 1015.0 |
| 20260503081411 | 53 | 102 | 0.0 | 0.0 | 0.00 | 0.00 | 0.00 | 49 | 1014.9 |
| 20260503080908 | 53 | 108 | 0.0 | 0.0 | 0.00 | 0.00 | 0.00 | 50 | 1015.2 |
| 20260503080404 | 53 | 119 | 0.0 | 0.0 | 0.00 | 0.00 | 0.00 | 49 | 1014.9 |
| 20260503072841 | 52 | 102 | 0.0 | 0.0 | 0.00 | 0.00 | 0.00 | 50 | 1015.1 |
| 20260503072338 | 52 | 77 | 0.0 | 1.0 | 0.00 | 0.00 | 0.00 | 51 | 1015.3 |
| 20260503071834 | 52 | 119 | 0.0 | 0.0 | 0.00 | 0.00 | 0.00 | 51 | 1015.4 |
| 20260503071331 | 52 | 88 | 0.0 | 2.0 | 0.00 | 0.00 | 0.00 | 51 | 1015.2 |
| 20260503070827 | 52 | 94 | 0.0 | 1.0 | 0.00 | 0.00 | 0.00 | 51 | 1015.4 |
| 20260503070320 | 52 | 114 | 0.0 | 0.0 | 0.00 | 0.00 | 0.00 | 51 | 1015.5 |
| 20260503060239 | 53 | 111 | 0.0 | 0.0 | 0.00 | 0.00 | 0.00 | 50 | 1016.0 |
| 20260503054726 | 53 | 79 | 0.0 | 0.0 | 0.00 | 0.00 | 0.00 | 48 | 1016.0 |
| 20260503054223 | 53 | 139 | 0.0 | 0.0 | 0.00 | 0.00 | 0.00 | 48 | 1016.3 |
| 20260503053721 | 53 | 89 | 0.0 | 0.0 | 0.00 | 0.00 | 0.00 | 49 | 1016.5 |
| 20260503053220 | 53 | 100 | 0.0 | 0.0 | 0.00 | 0.00 | 0.00 | 48 | 1016.3 |
| 20260503052715 | 53 | 77 | 0.0 | 0.0 | 0.00 | 0.00 | 0.00 | 48 | 1016.1 |
| 20260503052212 | 53 | 86 | 0.0 | 0.0 | 0.00 | 0.00 | 0.00 | 49 | 1016.3 |
| 20260503051707 | 53 | 114 | 0.0 | 0.0 | 0.00 | 0.00 | 0.00 | 49 | 1016.4 |
| 20260503051205 | 53 | 104 | 0.0 | 0.0 | 0.00 | 0.00 | 0.00 | 49 | 1016.6 |
| 20260503050701 | 53 | 115 | 1.0 | 3.0 | 0.00 | 0.00 | 0.00 | 49 | 1016.5 |
| 20260503050158 | 53 | 102 | 0.0 | 0.0 | 0.00 | 0.00 | 0.00 | 49 | 1016.7 |
| 20260503045655 | 53 | 98 | 0.0 | 0.0 | 0.00 | 0.00 | 0.00 | 50 | 1016.8 |
| 20260503045152 | 53 | 77 | 0.0 | 0.0 | 0.00 | 0.00 | 0.00 | 49 | 1016.9 |
| 20260503044643 | 53 | 92 | 0.0 | 0.0 | 0.00 | 0.00 | 0.00 | 49 | 1017.1 |
| 20260503044140 | 53 | 94 | 0.0 | 0.0 | 0.00 | 0.00 | 0.00 | 48 | 1017.0 |
| 20260503043637 | 53 | 110 | 0.0 | 0.0 | 0.00 | 0.00 | 0.00 | 48 | 1017.1 |
| 20260503043134 | 53 | 93 | 0.0 | 0.0 | 0.00 | 0.00 | 0.00 | 48 | 1017.1 |
| 20260503042630 | 53 | 84 | 0.0 | 0.0 | 0.00 | 0.00 | 0.00 | 48 | 1017.2 |
| 20260503042126 | 53 | 97 | 0.0 | 0.0 | 0.00 | 0.00 | 0.00 | 48 | 1017.1 |
| 20260503041624 | 53 | 94 | 0.0 | 0.0 | 0.00 | 0.00 | 0.00 | 49 | 1017.3 |
| 20260503041121 | 53 | 102 | 0.0 | 0.0 | 0.00 | 0.00 | 0.00 | 49 | 1017.2 |
| 20260503040619 | 53 | 107 | 0.0 | 0.0 | 0.00 | 0.00 | 0.00 | 48 | 1017.2 |
| 20260503040116 | 53 | 93 | 0.0 | 0.0 | 0.00 | 0.00 | 0.00 | 48 | 1017.2 |
| 20260503035612 | 53 | 87 | 0.0 | 0.0 | 0.00 | 0.00 | 0.00 | 48 | 1017.5 |
| 20260503035110 | 53 | 89 | 0.0 | 0.0 | 0.00 | 0.00 | 0.00 | 48 | 1017.3 |
| 20260503034607 | 53 | 89 | 0.0 | 0.0 | 0.00 | 0.00 | 0.00 | 49 | 1017.4 |
| 20260503034104 | 53 | 89 | 0.0 | 0.0 | 0.00 | 0.00 | 0.00 | 48 | 1017.7 |
| 20260503033600 | 54 | 89 | 0.0 | 0.0 | 0.00 | 0.00 | 0.00 | 48 | 1017.6 |
| 20260503033059 | 54 | 88 | 0.0 | 0.0 | 0.00 | 0.00 | 0.00 | 48 | 1017.6 |
| 20260503032557 | 54 | 88 | 0.0 | 0.0 | 0.00 | 0.00 | 0.00 | 47 | 1017.6 |
| 20260503032054 | 54 | 88 | 0.0 | 0.0 | 0.00 | 0.00 | 0.00 | 47 | 1017.4 |
| 20260503031553 | 54 | 87 | 0.0 | 0.0 | 0.00 | 0.00 | 0.00 | 46 | 1017.6 |
| 20260503031050 | 54 | 90 | 0.0 | 0.0 | 0.00 | 0.00 | 0.00 | 46 | 1017.7 |
| 20260503030545 | 55 | 88 | 0.0 | 0.0 | 0.00 | 0.00 | 0.00 | 46 | 1017.9 |
| 20260503030043 | 55 | 93 | 0.0 | 0.0 | 0.00 | 0.00 | 0.00 | 45 | 1017.8 |
| 20260503025540 | 55 | 102 | 0.0 | 0.0 | 0.00 | 0.00 | 0.00 | 45 | 1017.5 |
| 20260503025038 | 55 | 91 | 0.0 | 0.0 | 0.00 | 0.00 | 0.00 | 45 | 1017.6 |
| 20260503024533 | 55 | 91 | 0.0 | 0.0 | 0.00 | 0.00 | 0.00 | 45 | 1017.7 |
| 20260503024031 | 55 | 88 | 0.0 | 0.0 | 0.00 | 0.00 | 0.00 | 45 | 1017.7 |
| 20260503023527 | 55 | 103 | 0.0 | 0.0 | 0.00 | 0.00 | 0.00 | 45 | 1017.8 |
| 20260503023025 | 55 | 103 | 0.0 | 0.0 | 0.00 | 0.00 | 0.00 | 44 | 1017.6 |
| 20260503022521 | 55 | 103 | 0.0 | 0.0 | 0.00 | 0.00 | 0.00 | 44 | 1017.8 |
| 20260503022016 | 56 | 103 | 0.0 | 0.0 | 0.00 | 0.00 | 0.00 | 43 | 1017.7 |
| 20260503021513 | 56 | 103 | 0.0 | 0.0 | 0.00 | 0.00 | 0.00 | 43 | 1017.8 |
| 20260503021009 | 56 | 103 | 0.0 | 0.0 | 0.00 | 0.00 | 0.00 | 43 | 1017.9 |
| 20260503020507 | 56 | 103 | 0.0 | 0.0 | 0.00 | 0.00 | 0.00 | 42 | 1017.6 |
| 20260503020004 | 57 | 103 | 0.0 | 0.0 | 0.00 | 0.00 | 0.00 | 42 | 1017.5 |
| 20260503015500 | 57 | 103 | 0.0 | 0.0 | 0.00 | 0.00 | 0.00 | 42 | 1017.5 |
| 20260503014956 | 57 | 103 | 0.0 | 0.0 | 0.00 | 0.00 | 0.00 | 40 | 1017.5 |
| 20260503014453 | 57 | 103 | 0.0 | 0.0 | 0.00 | 0.00 | 0.00 | 41 | 1017.5 |
| 20260503013951 | 58 | 103 | 0.0 | 0.0 | 0.00 | 0.00 | 0.00 | 39 | 1017.7 |
| 20260503013448 | 58 | 103 | 0.0 | 0.0 | 0.00 | 0.00 | 0.00 | 39 | 1017.4 |
| 20260503012945 | 58 | 103 | 0.0 | 0.0 | 0.00 | 0.00 | 0.00 | 39 | 1017.5 |
| 20260503012443 | 59 | 103 | 0.0 | 0.0 | 0.00 | 0.00 | 0.00 | 40 | 1017.5 |
| 20260503011939 | 59 | 103 | 0.0 | 0.0 | 0.00 | 0.00 | 0.00 | 39 | 1017.5 |
| 20260503011436 | 59 | 103 | 0.0 | 0.0 | 0.00 | 0.00 | 0.00 | 38 | 1017.8 |
| 20260503010933 | 60 | 103 | 0.0 | 0.0 | 0.00 | 0.00 | 0.00 | 38 | 1017.5 |
| 20260503010430 | 60 | 103 | 0.0 | 0.0 | 0.00 | 0.00 | 0.00 | 37 | 1017.7 |
| 20260503005927 | 60 | 104 | 0.0 | 0.0 | 0.00 | 0.00 | 0.00 | 36 | 1017.6 |
| 20260503005424 | 61 | 103 | 0.0 | 0.0 | 0.00 | 0.00 | 0.00 | 36 | 1017.7 |
| 20260503004921 | 61 | 103 | 0.0 | 0.0 | 0.00 | 0.00 | 0.00 | 35 | 1017.7 |
| 20260503004418 | 61 | 94 | 0.0 | 0.0 | 0.00 | 0.00 | 0.00 | 35 | 1017.5 |
| 20260503003916 | 62 | 123 | 0.0 | 0.0 | 0.00 | 0.00 | 0.00 | 34 | 1017.5 |
| 20260503003412 | 62 | 100 | 0.0 | 0.0 | 0.00 | 0.00 | 0.00 | 34 | 1017.6 |
| 20260503002910 | 62 | 84 | 1.0 | 2.0 | 0.00 | 0.00 | 0.00 | 35 | 1017.4 |
| 20260503002407 | 63 | 96 | 0.0 | 0.0 | 0.00 | 0.00 | 0.00 | 34 | 1017.7 |
| 20260503001903 | 63 | 120 | 0.0 | 1.0 | 0.00 | 0.00 | 0.00 | 32 | 1017.6 |
| 20260503001359 | 64 | 90 | 0.0 | 0.0 | 0.00 | 0.00 | 0.00 | 33 | 1017.6 |
| 20260503000857 | 64 | 119 | 0.0 | 1.0 | 0.00 | 0.00 | 0.00 | 31 | 1017.8 |
| 20260503000354 | 65 | 137 | 1.0 | 2.0 | 0.00 | 0.00 | 0.00 | 30 | 1017.8 |
| 20260502235851 | 67 | 44 | 1.0 | 3.0 | 0.00 | 0.00 | 0.00 | 29 | 1017.9 |
| 20260502235348 | 63 | 77 | 0.0 | 0.0 | 0.00 | 0.00 | 0.00 | 33 | 1017.8 |
| 20260502234845 | 63 | 121 | 0.0 | 0.0 | 0.00 | 0.00 | 0.00 | 30 | 1017.7 |
| 20260502234342 | 64 | 112 | 1.0 | 1.0 | 0.00 | 0.00 | 0.00 | 31 | 1017.8 |
| 20260502233838 | 63 | 283 | 1.0 | 2.0 | 0.00 | 0.00 | 0.00 | 30 | 1018.0 |
| 20260502233334 | 63 | 214 | 1.0 | 2.0 | 0.00 | 0.00 | 0.00 | 31 | 1018.0 |
| 20260502232832 | 64 | 108 | 0.0 | 0.0 | 0.00 | 0.00 | 0.00 | 30 | 1017.8 |
| 20260502232328 | 63 | 123 | 1.0 | 1.0 | 0.00 | 0.00 | 0.00 | 31 | 1018.1 |
| 20260502231824 | 64 | 125 | 0.0 | 0.0 | 0.00 | 0.00 | 0.00 | 31 | 1018.0 |
| 20260502231322 | 63 | 228 | 1.0 | 2.0 | 0.00 | 0.00 | 0.00 | 30 | 1018.0 |
| 20260502230820 | 63 | 256 | 1.0 | 1.0 | 0.00 | 0.00 | 0.00 | 31 | 1017.8 |
| 20260502230318 | 64 | 270 | 1.0 | 2.0 | 0.00 | 0.00 | 0.00 | 30 | 1018.1 |
| 20260502225815 | 64 | 193 | 2.0 | 2.0 | 0.00 | 0.00 | 0.00 | 29 | 1018.2 |
| 20260502225311 | 64 | 104 | 0.0 | 0.0 | 0.00 | 0.00 | 0.00 | 30 | 1018.1 |
| 20260502224808 | 64 | 297 | 1.0 | 2.0 | 0.00 | 0.00 | 0.00 | 29 | 1018.1 |
| 20260502224304 | 66 | 6 | 0.0 | 2.0 | 0.00 | 0.00 | 0.00 | 27 | 1018.0 |
| 20260502223802 | 63 | 36 | 1.0 | 2.0 | 0.00 | 0.00 | 0.00 | 29 | 1018.0 |
| 20260502223300 | 64 | 273 | 1.0 | 3.0 | 0.00 | 0.00 | 0.00 | 29 | 1018.1 |
| 20260502222757 | 64 | 348 | 1.0 | 3.0 | 0.00 | 0.00 | 0.00 | 29 | 1018.3 |
| 20260502222255 | 63 | 122 | 1.0 | 2.0 | 0.00 | 0.00 | 0.00 | 32 | 1018.4 |
| 20260502221750 | 63 | 267 | 1.0 | 2.0 | 0.00 | 0.00 | 0.00 | 30 | 1018.4 |
| 20260502221246 | 63 | 41 | 1.0 | 2.0 | 0.00 | 0.00 | 0.00 | 30 | 1018.3 |
| 20260502220744 | 64 | 261 | 1.0 | 2.0 | 0.00 | 0.00 | 0.00 | 29 | 1018.4 |
| 20260502220239 | 63 | 263 | 1.0 | 2.0 | 0.00 | 0.00 | 0.00 | 33 | 1018.5 |
| 20260502215736 | 63 | 318 | 2.0 | 2.0 | 0.00 | 0.00 | 0.00 | 31 | 1018.5 |
| 20260502215233 | 62 | 128 | 0.0 | 0.0 | 0.00 | 0.00 | 0.00 | 32 | 1018.4 |
| 20260502214731 | 62 | 5 | 0.0 | 1.0 | 0.00 | 0.00 | 0.00 | 32 | 1018.4 |
| 20260502214228 | 63 | 35 | 2.0 | 2.0 | 0.00 | 0.00 | 0.00 | 30 | 1018.6 |
| 20260502213725 | 62 | 286 | 0.0 | 2.0 | 0.00 | 0.00 | 0.00 | 32 | 1018.5 |
| 20260502213222 | 63 | 323 | 2.0 | 2.0 | 0.00 | 0.00 | 0.00 | 31 | 1018.6 |